FLI450 EKVG-EKCH

Flight info

Callsign FLI450
Flight time N/A
Altitude 37000
Route ODEVA DCT GUNPA/N0441F370 DCT TESPI
Aircraft A320/M-SDE3FGHIRWY/LB1

Departure

Time 2026-04-28 09:10
Airport Vágar Airport (EKVG)

Arrival

Time N/A
Airport Copenhagen Kastrup Airport (EKCH)
Time Latitude Longitude Altitude Speed Heading
2026-04-28 08:44 62.06712 -7.28024 293 ft 0 kts 76°
2026-04-28 09:04 62.06711 -7.28022 289 ft 0 kts 89°
2026-04-28 09:04 62.06705 -7.28019 289 ft 2 kts 157°
2026-04-28 09:05 62.06669 -7.28060 289 ft 9 kts 210°
2026-04-28 09:05 62.06599 -7.28089 289 ft 11 kts 186°
2026-04-28 09:05 62.06516 -7.28129 287 ft 14 kts 207°
2026-04-28 09:05 62.06447 -7.28082 294 ft 11 kts 117°
2026-04-28 09:06 62.06416 -7.27952 295 ft 8 kts 118°
2026-04-28 09:06 62.06380 -7.27815 297 ft 15 kts 121°
2026-04-28 09:06 62.06312 -7.27541 293 ft 25 kts 118°
2026-04-28 09:06 62.06221 -7.27174 283 ft 30 kts 117°
2026-04-28 09:07 62.06124 -7.26773 270 ft 26 kts 118°
2026-04-28 09:07 62.06059 -7.26517 261 ft 19 kts 117°
2026-04-28 09:07 62.06004 -7.26291 251 ft 12 kts 118°
2026-04-28 09:07 62.05969 -7.26155 246 ft 11 kts 118°
2026-04-28 09:08 62.05954 -7.26028 245 ft 6 kts 97°
2026-04-28 09:08 62.05938 -7.26009 246 ft 1 kts 193°
2026-04-28 09:08 62.05937 -7.26036 245 ft 3 kts 284°
2026-04-28 09:08 62.05947 -7.26067 244 ft 0 kts 296°
2026-04-28 09:09 62.05993 -7.26255 250 ft 49 kts 297°
2026-04-28 09:09 62.06278 -7.27396 285 ft 123 kts 298°
2026-04-28 09:09 62.06765 -7.29351 455 ft 164 kts 296°
2026-04-28 09:10 62.07276 -7.31558 1240 ft 169 kts 290°
2026-04-28 09:10 62.07700 -7.33985 2033 ft 178 kts 282°
2026-04-28 09:10 62.08081 -7.36574 2500 ft 192 kts 282°
2026-04-28 09:10 62.08498 -7.39445 2807 ft 214 kts 283°
2026-04-28 09:11 62.08962 -7.42543 3496 ft 221 kts 283°
2026-04-28 09:11 62.09403 -7.45707 4305 ft 222 kts 277°
2026-04-28 09:11 62.09556 -7.48986 5101 ft 223 kts 265°
2026-04-28 09:11 62.09360 -7.52277 5877 ft 224 kts 254°
2026-04-28 09:12 62.08835 -7.55386 6635 ft 228 kts 243°
2026-04-28 09:12 62.07973 -7.58256 7359 ft 233 kts 231°
2026-04-28 09:12 62.06785 -7.60718 8088 ft 239 kts 219°
2026-04-28 09:12 62.05359 -7.62532 8809 ft 246 kts 207°
2026-04-28 09:13 62.03709 -7.63646 9552 ft 254 kts 194°
2026-04-28 09:13 62.01922 -7.63873 10270 ft 263 kts 179°
2026-04-28 09:13 62.00104 -7.63080 10919 ft 272 kts 164°
2026-04-28 09:13 61.98394 -7.61242 11588 ft 280 kts 148°
2026-04-28 09:14 61.96927 -7.58438 12254 ft 289 kts 132°
2026-04-28 09:14 61.95853 -7.54786 12908 ft 296 kts 115°
2026-04-28 09:14 61.95305 -7.50542 13585 ft 302 kts 97°
2026-04-28 09:14 61.95085 -7.46001 13922 ft 319 kts 97°
2026-04-28 09:15 61.94842 -7.41133 14063 ft 342 kts 97°
2026-04-28 09:15 61.94573 -7.35955 14203 ft 363 kts 97°
2026-04-28 09:15 61.94286 -7.30501 14464 ft 378 kts 97°
2026-04-28 09:15 61.93989 -7.24922 14985 ft 383 kts 97°
2026-04-28 09:16 61.93685 -7.19277 15564 ft 386 kts 97°
2026-04-28 09:16 61.93377 -7.13586 16141 ft 390 kts 97°
2026-04-28 09:16 61.93068 -7.07837 16715 ft 393 kts 97°
2026-04-28 09:16 61.92753 -7.02052 17302 ft 396 kts 97°
2026-04-28 09:17 61.92429 -6.96204 17871 ft 400 kts 97°
2026-04-28 09:17 61.92100 -6.90324 18440 ft 403 kts 97°
2026-04-28 09:17 61.91765 -6.84390 18958 ft 407 kts 97°
2026-04-28 09:17 61.91429 -6.78395 19471 ft 409 kts 97°
2026-04-28 09:18 61.91093 -6.72453 19990 ft 412 kts 97°
2026-04-28 09:18 61.90746 -6.66402 20509 ft 414 kts 97°
2026-04-28 09:18 61.90368 -6.60321 21030 ft 417 kts 101°
2026-04-28 09:18 61.89731 -6.54310 21542 ft 419 kts 104°
2026-04-28 09:19 61.89060 -6.48269 22043 ft 422 kts 104°
2026-04-28 09:19 61.88387 -6.42193 22534 ft 425 kts 104°
2026-04-28 09:19 61.87710 -6.36071 23009 ft 427 kts 104°
2026-04-28 09:19 61.87026 -6.29930 23475 ft 430 kts 104°
2026-04-28 09:20 61.86334 -6.23746 23938 ft 432 kts 104°
2026-04-28 09:20 61.85638 -6.17540 24318 ft 435 kts 104°
2026-04-28 09:20 61.84937 -6.11301 24692 ft 437 kts 104°
2026-04-28 09:20 61.84227 -6.05015 25050 ft 439 kts 104°
2026-04-28 09:21 61.83509 -5.98720 25398 ft 441 kts 104°
2026-04-28 09:21 61.82778 -5.92388 25742 ft 444 kts 104°
2026-04-28 09:21 61.82044 -5.86031 26081 ft 446 kts 104°
2026-04-28 09:21 61.81306 -5.79646 26419 ft 448 kts 104°
2026-04-28 09:22 61.80560 -5.73223 26743 ft 450 kts 104°
2026-04-28 09:22 61.79809 -5.66767 27068 ft 453 kts 104°
2026-04-28 09:22 61.79056 -5.60296 27382 ft 455 kts 104°
2026-04-28 09:22 61.78292 -5.53809 27693 ft 457 kts 104°
2026-04-28 09:23 61.77514 -5.47266 28008 ft 459 kts 104°
2026-04-28 09:23 61.76734 -5.40710 28312 ft 461 kts 104°
2026-04-28 09:23 61.75948 -5.34138 28604 ft 463 kts 104°
2026-04-28 09:23 61.75157 -5.27538 28894 ft 465 kts 104°
2026-04-28 09:24 61.74359 -5.20909 29172 ft 467 kts 104°